Regional Weather Roundup
Issued by NWS

Home | Current Version | Previous Version | Text Only | Print | Product List | Glossary On
Versions: 1 2 3 4 5 6 7 8 9 10 11 12 13 14 15 16 17 18 19 20 21 22 23 24 25 26 27 28 29 30 31 32 33 34 35 36 37 38 39 40 41 42 43 44 45 46 47 48 49 50
000
ASUS42 KKEY 232210
RWRKEY

FLORIDA REGIONAL WEATHER ROUNDUP FOR THE FLORIDA KEYS
NATIONAL WEATHER SERVICE KEY WEST FLORIDA
500 PM EST THU NOV 23 2017

...SOUTH FLORIDA AND THE KEYS...

CITY           SKY/WX    TMP DP  RH WIND       PRES   REMARKS
FORT MYERS     CLOUDY    71  68  90 S5        29.80S
SW REGIONAL AP LGT RAIN  70  69  97 SW7       29.81S
NAPLES         LGT RAIN  71  71 100 SW5       29.81F
MIAMI          CLOUDY    81  71  71 SW7       29.81S
WEST KENDALL   MOCLDY    80  69  69 SW10      29.81S
HOMESTEAD      PTCLDY    79  76  90 SW10      29.81S
MARATHON       MOCLDY    81  70  69 SW6       29.83R
KEY WEST INTL  PTCLDY    79  71  76 SW8       29.83R

...INTERNATIONAL WEATHER...

CITY           SKY/WX    TMP DP  RH WIND       PRES   REMARKS
NASSAU BAHAMAS MOCLDY    81  73  78 S5        29.84S
CANCUN MEXICO  MOSUNNY   81  66  61 W13       29.85S
COZUMEL MEXICO MOSUNNY   82  70  65 W3        29.85R

ADJACENT COASTAL WATERS...

STATION/POSITION TIME  SKY/WX   TEMP    WIND        PRES    WAVE
                                AIR SEA DIR/SP/G            HT/PER
                 (UTC)          (F)     (DEG/KT/KT) (MB)    (FT/S)
PULASKI SHOAL LI 2200            74     320/ 16/ 17 1010.4R
SAND KEY         2150            79                 1010.8R
LONG KEY         NOT AVBL
MOLASSES REEF    2200            78 80  210/  9/ 10 1010.5R
FOWEY ROCKS      2200            79 80  190/ 18/ 19 1010.2S
Buoy 42097       2130               79                N/A     4/ 5

$$



USA.gov is the U.S. government's official web portal to all federal, state and local government web resources and services.